STARLINK-37644, 69042

Orbit data source: Space-Track

STARLINK-37644, 69042 is a payload satellite owned by SpaceX/Seattle (US) in SSO that was launched on Wed, 06 May 2026 UTC via an FALCON 9 launch vehicle from the Air Force Western Test Range (AFWTR). Payload-class satellites include a variety of spacecraft equipped with specific instruments for various scientific and technological missions. These include communications satellites like Starlink; space stations such as the ISS; scientific satellites like the Hubble; Earth observation satellites from companies like Planet Labs, Umbra, and HawkEye 360; GPS; miniature CubeSats for education and research; and military/defense satellites.

Loading next visibility...
Identifier
69042, 2026-101T
Orbit
SSO
Country
Flag of USUS
Related business
Manufacturer
SpaceX/Seattle
Mission
Operational Commercial Communications
Bus & Motor
STARLINK V2MO, Unknown motor
Mass
575 kg wet, ~530 kg dry
Launch date (UTC)
2026-05-06 (3 months ago)
Launch vehicle
FALCON 9
Launch site
Air Force Western Test Range (AFWTR)
Object type
Payload
Rocket body
Debris
Shape & HBR
Box + 2 Pan, 17.7 m
Radar Cross Section
36.964 m², Large (>1 m²)

Expand to show TLE details & history
Last TLE update: 23 hours ago

TLE from 23 hours ago
0 STARLINK-37644
1 69042U 26101T   26206.16953424  .00016589  00000-0  51532-3 0  9999
2 69042  97.2851  60.4794 0001592  87.0804 273.0621 15.33427379 12399
Epoch: 2026-07-25T04:04Z
TLE epoch observation values (Epoch: 2026-07-25T04:04:07.758Z)
Latitude
-0°
Longitude
56.5614°
Altitude
468.65 km
Speed
7.632 km/s
True Right ascension
04h 01m 55s
True Declination
0° 00' 00"
Sunlit
Object was in daylight at epoch
Visualization orbit readout
Latitude
Unknown
Longitude
Unknown
Altitude
Unknown
Speed
Unknown
Apparent Right ascension
Unknown
Apparent Declination
Unknown
Sunlit
N/A
Visualization observer readout
Local Sidereal Time
16:18:39
Azimuth
Unknown
Elevation
Unknown
Doppler factor
Unknown
Orbital elements
Apogee altitude
463.627 km
Perigee altitude
461.449 km
Semi-major axis
6,840.675 km
Eccentricity
0.00016
Inclination
97.2851°
RAAN
60.4794°
Arg. of periapsis
87.0804°
True anomaly
273.04388°
Mean anomaly
273.0621°
Eccentric anomaly
273.05299°
Mean motion
3.83614 °/min
Orbital period
93.84 mins
BSTAR
0.00051532
Loading maneuver chart data...
Computing Atmospheric mass density...
Loading historical data...
Loading historical data...
Loading historical data...
Loading historical data...
Loading historical data...
Loading historical data...
Loading historical data...

Documentation

Showing up to 5 results
|